Location: Smithers
(54.7670°N, 127.1670°W)
Time: 11:07:24
(UTC-07:00)

Daily predictions for brighter satellites

Satellite Brightness Start Highest point End
(mag) Time Altitude Azimuth Time Altitude Azimuth Time Altitude Azimuth
H-2A R/B 2.2 22:59:15 10° SSE 23:04:39 87° ENE 23:10:10 10° NNW
YAOGAN 6 4.3 23:01:46 10° SSW 23:04:59 29° W 23:08:11 10° NNW
Cosmos 1745 Rocket 4.1 22:59:12 10° S 23:05:20 66° E 23:11:27 10° NNE
Cosmos 389 Rocket 4.2 23:02:47 10° N 23:05:42 23° ENE 23:08:36 10° ESE
Lacrosse 4 Rocket 1.6 23:01:51 10° NW 23:06:17 79° NE 23:10:45 10° SE
SeaSat 1 3.3 23:07:26 10° ESE 23:12:08 46° NE 23:16:52 10° NNW
USA 234 3.6 23:07:57 10° ENE 23:14:29 76° N 23:21:02 10° W
CZ-4B R/B 4.0 23:13:48 10° ENE 23:14:47 11° NE 23:15:45 10° NE
Cosmos 1048 Rocket 4.2 23:10:24 10° NNW 23:15:46 71° ENE 23:21:09 10° SE
Cosmos 1898 Rocket 3.5 23:10:59 10° SSW 23:16:12 83° ESE 23:21:28 10° NNE
Cosmos 2058 4.1 23:12:33 10° SW 23:16:29 43° WNW 23:20:26 10° N
Cosmos 1862 Rocket 3.7 23:15:03 10° NNW 23:19:26 76° W 23:23:45 10° S
Cosmos 858 Rocket 4.5 23:15:10 10° SSW 23:20:23 82° ESE 23:25:37 10° NNE
Sich 1 3.7 23:20:34 10° SSW 23:24:55 57° WNW 23:29:15 10° N
Cosmos 1933 3.6 23:20:53 10° N 23:24:55 59° ENE 23:28:57 10° SSE
USA 229 DEB 4.3 23:19:06 10° WSW 23:26:02 65° NNW 23:33:06 10° NE
USA 229 4.3 23:19:11 10° WSW 23:26:08 65° NNW 23:33:12 10° NE
GEOS 3 Rocket 4.1 23:21:07 10° ESE 23:26:16 62° NE 23:31:22 10° NW
Cosmos 2150 Rocket 4.2 23:21:33 10° SSW 23:27:02 84° WNW 23:32:33 10° NNE
CARTOSAT-1 3.9 23:23:00 10° S 23:27:17 64° WSW 23:31:36 10° NNW
Cosmos 1386 Rocket 4.5 23:21:24 10° S 23:27:22 71° E 23:33:24 10° NNE
Cosmos 2227 Rocket 2.5 23:22:02 10° S 23:27:29 50° ESE 23:32:57 10° NE
SAR-Lupe-2 3.7 23:24:05 10° S 23:27:39 71° WSW 23:31:16 10° NNW
Cosmos 1346 3.1 23:25:08 10° S 23:28:08 68° ESE 23:31:10 10° NNE
Cosmos 1633 Rocket 3.8 23:25:55 10° SSW 23:30:12 54° WNW 23:34:31 10° N
Cosmos 1455 2.7 23:26:30 10° NNW 23:30:14 55° W 23:33:59 10° S
NOSS 3-2 (A) 4.4 23:24:40 10° NW 23:31:39 60° NNE 23:39:18 10° ESE
COSMOS 2455 3.1 23:28:27 10° NW 23:34:27 65° SW 23:40:19 10° SSE
Cosmos 2181 Rocket 4.2 23:28:54 10° N 23:35:18 74° ENE 23:41:44 10° SSE
ATLAS 5 CENTAUR R/B 4.0 23:31:12 10° WNW 23:36:04 35° N 23:41:22 10° ENE
SL-16 R/B 2.3 23:30:41 10° NW 23:36:23 77° WSW 23:41:56 11° SSE
ERBS 3.5 23:33:54 10° SSW 23:36:45 24° SE 23:39:36 10° E
CZ-4C R/B 3.1 23:30:15 10° NW 23:36:48 65° NNE 23:44:13 10° ESE
Cosmos 2333 Rocket 3.3 23:32:12 10° NW 23:37:26 37° WSW 23:42:39 10° S
Aureole 2 Rocket 2.9 23:40:13 10° NNW 23:43:11 45° ENE 23:46:14 11° SE
NOSS 3-1 (A) 3.5 23:38:54 10° SW 23:45:01 79° SE 23:51:58 10° NE
Terra 2.6 23:45:04 10° S 23:49:39 46° W 23:54:15 10° NNW
DMSP B5D2-2 4.1 23:44:24 10° NNE 23:49:41 81° ESE 23:54:54 10° SSW
FALCON 9 R/B 4.4 23:34:16 10° WSW 23:50:37 26° SSW 23:56:48 11° SSE
Cosmos 2219 Rocket 3.9 23:47:52 10° NW 23:52:12 23° WSW 23:56:32 10° SSW
COS B Rocket 3.5 23:49:39 10° N 23:53:20 58° E 23:56:56 13° SSE
IGS 5A 4.4 23:49:51 10° S 23:53:48 41° W 23:57:48 10° NNW
Cosmos 2297 Rocket 2.4 23:48:46 10° S 23:54:16 55° ESE 23:59:48 10° NE
Cosmos 1869 Rocket 4.1 23:50:47 12° SSE 23:54:44 45° E 23:59:01 10° NNE
